Clines Corners, NM

2:16 AM MST on December 06, 2016 (GMT -0700)
Clines Corner

Weather History for KCQC - December, 2012

Change the Weather History Date:

Saturday, December 1, 2012

  Actual Average (KABQ) Record (KABQ)
Temperature  
Mean Temperature 46 °F 39 °F  
Max Temperature 57 °F 49 °F 67 °F (1892)
Min Temperature 36 °F 29 °F 11 °F (1918)
Degree Days  
Heating Degree Days 18 26  
Month to date heating degree days 26  
Since 1 July heating degree days 893  
Cooling Degree Days 0 0  
Month to date cooling degree days 0  
Year to date cooling degree days 1322  
Moisture  
Dew Point 19 °F    
Average Humidity 38    
Maximum Humidity 57    
Minimum Humidity 21    
Precipitation  
Precipitation 0.00 in 0.02 in 0.67 in (1906)
Month to date precipitation 0.02  
Year to date precipitation 8.97  
Snow  
Snow 0.00 in - - ()
Month to date snowfall  
Since 1 July snowfall  
Snow Depth -    
Sea Level Pressure  
Sea Level Pressure 30.03 in    
Wind  
Wind Speed 19 mph (WNW)    
Max Wind Speed 39 mph    
Max Gust Speed 48 mph    
Visibility 10 miles    
Events      
T = Trace of Precipitation, MM = Missing Value Source: NWS Daily Summary

Daily Weather History Graph

Daily Weather History Graph

Search for Another Location

Airport or City:

Trip Planner

Search our weather history database for the weather conditions in past years. The results will help you decide how hot, cold, wet, or windy it might be!

Date:

Astronomy

Dec. 01, 2012 Rise Set
Actual Time 6:52 AM MST 4:50 PM MST
Civil Twilight 6:25 AM MST 5:18 PM MST
Nautical Twilight 5:53 AM MST 5:50 PM MST
Astronomical Twilight 5:23 AM MST 6:20 PM MST
Moon 7:41 PM MST (12/1) 9:08 AM MST (12/1)
Length of Visible Light 10h 53m
Length of Day
9h 58m
Waning Gibbous, 91% of the Moon is Illuminated
Dec 1
Waning Gibbous
Dec 6
Last Quarter
Dec 13
New
Dec 19
First Quarter
Dec 28
Full

Hourly Weather History & Observations

Time (MST) Temp. Windchill Dew Point Humidity Pressure Visibility Wind Dir Wind Speed Gust Speed Precip Events Conditions
12:53 AM 39.9 °F 31.4 °F 18.0 °F 41% 30.10 in 10.0 mi West 16.1 mph - N/A   Clear
1:53 AM 37.9 °F 30.0 °F 18.0 °F 45% 30.11 in 10.0 mi West 12.7 mph - N/A   Clear
2:53 AM 39.9 °F 31.4 °F 19.0 °F 43% 30.08 in 10.0 mi West 16.1 mph - N/A   Clear
3:53 AM 41.0 °F 32.2 °F 19.0 °F 41% 30.01 in 10.0 mi West 18.4 mph - N/A   Clear
4:53 AM 37.0 °F 27.0 °F 19.0 °F 48% 30.02 in 10.0 mi West 18.4 mph - N/A   Clear
5:53 AM 36.0 °F 27.1 °F 21.0 °F 55% 30.02 in 10.0 mi WNW 13.8 mph - N/A   Clear
6:53 AM 36.0 °F 26.0 °F 21.9 °F 57% 30.00 in 10.0 mi WNW 17.3 mph - N/A   Clear
7:53 AM 39.9 °F 29.2 °F 21.9 °F 49% 29.98 in 10.0 mi West 25.3 mph 32.2 mph N/A   Clear
8:53 AM 46.0 °F 37.0 °F 21.0 °F 37% 29.95 in 10.0 mi WNW 27.6 mph 33.4 mph N/A   Clear
9:53 AM 52.0 °F - 19.0 °F 27% 29.94 in 10.0 mi WNW 33.4 mph 44.9 mph N/A   Clear
10:53 AM 54.0 °F - 18.0 °F 24% 29.92 in 10.0 mi WNW 39.1 mph 48.3 mph N/A   Clear
11:53 AM 55.9 °F - 19.0 °F 24% 29.99 in 10.0 mi WNW 36.8 mph 44.9 mph N/A   Clear
12:53 PM 57.0 °F - 19.0 °F 23% 29.97 in 10.0 mi NW 28.8 mph 38.0 mph N/A   Clear
1:53 PM 57.9 °F - 18.0 °F 21% 29.99 in 10.0 mi WNW 20.7 mph 36.8 mph N/A   Clear
2:53 PM 55.9 °F - 18.0 °F 23% 29.99 in 10.0 mi WNW 27.6 mph 38.0 mph N/A   Clear
3:53 PM 55.9 °F - 19.0 °F 24% 30.00 in 10.0 mi WNW 17.3 mph 27.6 mph N/A   Clear
4:53 PM 48.9 °F - 19.9 °F 32% 30.07 in 10.0 mi West 12.7 mph - N/A   Clear
5:53 PM 46.0 °F 41.9 °F 19.0 °F 34% 30.09 in 10.0 mi West 8.1 mph - N/A   Clear
6:53 PM 43.0 °F 35.7 °F 19.0 °F 38% 30.10 in 10.0 mi WNW 15.0 mph - N/A   Clear
7:53 PM 42.1 °F 35.2 °F 19.9 °F 41% 30.11 in 10.0 mi NW 12.7 mph - N/A   Clear
8:53 PM 42.1 °F 34.2 °F 19.9 °F 41% 30.06 in 10.0 mi WNW 16.1 mph - N/A   Clear
9:53 PM 41.0 °F 33.5 °F 19.9 °F 43% 30.04 in 10.0 mi WNW 13.8 mph - N/A   Clear
10:53 PM 37.9 °F 29.6 °F 19.0 °F 47% 30.06 in 10.0 mi West 13.8 mph - N/A   Clear
11:53 PM 37.9 °F 29.2 °F 19.0 °F 47% 30.04 in 10.0 mi WNW 15.0 mph - N/A   Clear